Simultaneous Nadir Overpasses (SNOs) Predictions

Prediction of SNOs between NOAA-19 and METOP-C Satellite Orbit:

Table of predicted SNOs for the next 14.0 days since TLE Epoch: 8/9/2019
Index Date (NOAA-19) Time (NOAA-19) Lat,Lon (NOAA-19) SZA (NOAA-19 ) Date (METOP-C) Time (METOP-C) Lat,Lon (METOP-C) SZA (METOP-C ) Distance(km) Time Diff (sec)
1 08/14/2019 13:21:38 -79.43, 176.46 114.55 08/14/2019 13:22:52 -79.42, 176.55 114.54 2.64 74
2 08/14/2019 14:12:42 79.41, -16.15 65.46 08/14/2019 14:13:33 79.42, -16.12 65.47 0.68 51
3 08/14/2019 15:03:38 -79.41, 151.17 114.54 08/14/2019 15:04:14 -79.40, 151.10 114.54 1.56 36
4 08/14/2019 15:54:42 79.39, -41.43 65.47 08/14/2019 15:54:55 79.40, -41.57 65.47 3.04 13
5 08/14/2019 16:45:39 -79.41, 125.61 114.51 08/14/2019 16:45:36 -79.39, 125.66 114.54 3.18 3
6 08/14/2019 17:36:43 79.40, -66.99 65.49 08/14/2019 17:36:17 79.39, -67.02 65.48 1.22 26
7 08/14/2019 18:27:39 -79.39, 100.32 114.50 08/14/2019 18:26:58 -79.37, 100.21 114.54 3.15 41
8 08/14/2019 19:18:44 79.40, -92.55 65.52 08/14/2019 19:17:39 79.37, -92.47 65.48 3.77 65




NCC Satellite Simultaneous Nadir Overpasses (SNOs) Prediction Service
